Location: Brunnen
(48.6541°N, 10.9920°E)
Time: 09:03:08
(UTC+00:00)

Cosmos 1340 Rocket - Pass Details

Date: 01 June 2020
Orbit: 530 x 558 km, 81.2° (Epoch: 14 July)

Event Time Altitude Azimuth Distance (km) Brightness Sun altitude
Rises 21:54:24 0° 352° (N) 2,742 8.0 -16.9°
Reaches altitude 10° 21:56:38 10° 358° (N) 1,846 6.7 -17.1°
Maximum altitude 22:00:36 49° 74° (ENE) 722 3.3 -17.3°
Enters shadow 22:02:04 33° 129° (SE) 958 3.6 -17.3°
